TimePDT,TemperatureF,Dew PointF,Humidity,Sea Level PressureIn,VisibilityMPH,Wind Direction,Wind SpeedMPH,Gust SpeedMPH,PrecipitationIn,Events,Conditions,WindDirDegrees,DateUTC
12:53 AM,42.1,34.0,73,30.13,10.0,South,6.9,-,N/A,,Overcast,180,2013-03-18 07:53:00
1:53 AM,41.0,37.0,86,30.10,10.0,South,17.3,23.0,0.00,Rain,Light Rain,170,2013-03-18 08:53:00
2:53 AM,39.0,36.0,89,30.10,10.0,South,21.9,31.1,0.01,Rain,Light Rain,170,2013-03-18 09:53:00
3:53 AM,39.2,35.6,87,30.06,7.0,SSE,17.3,25.3,N/A,Rain,Light Rain,150,2013-03-18 10:53:00
4:53 AM,39.0,35.1,86,30.08,8.0,SSE,15.0,26.5,0.04,Rain,Light Rain,160,2013-03-18 11:53:00
5:29 AM,39.2,35.6,87,30.05,10.0,SSE,20.7,27.6,0.01,,Overcast,160,2013-03-18 12:29:00
5:45 AM,39.2,35.6,87,30.04,10.0,SSE,19.6,25.3,0.01,,Overcast,150,2013-03-18 12:45:00
5:53 AM,39.9,36.0,86,30.07,10.0,SSE,20.7,27.6,0.01,,Overcast,150,2013-03-18 12:53:00
6:06 AM,39.2,35.6,87,30.04,10.0,SSE,11.5,27.6,N/A,,Overcast,160,2013-03-18 13:06:00
6:53 AM,39.9,37.0,89,30.08,10.0,South,10.4,23.0,N/A,,Overcast,170,2013-03-18 13:53:00
7:46 AM,42.8,37.4,81,30.08,10.0,South,8.1,-,N/A,,Overcast,180,2013-03-18 14:46:00
7:53 AM,42.1,37.0,82,30.10,10.0,SSW,4.6,-,N/A,,Overcast,200,2013-03-18 14:53:00
8:07 AM,42.8,35.6,76,30.08,10.0,Variable,4.6,-,N/A,,Overcast,0,2013-03-18 15:07:00
8:53 AM,42.1,36.0,79,30.13,10.0,Variable,3.5,-,N/A,,Mostly Cloudy,0,2013-03-18 15:53:00
9:04 AM,42.8,35.6,76,30.11,10.0,Variable,5.8,-,0.00,Rain,Light Rain,0,2013-03-18 16:04:00
9:53 AM,43.0,36.0,76,30.15,10.0,SW,5.8,-,0.00,,Overcast,220,2013-03-18 16:53:00
10:00 AM,44.6,37.4,76,30.12,10.0,WSW,4.6,-,N/A,,Mostly Cloudy,250,2013-03-18 17:00:00
10:53 AM,44.1,36.0,73,30.17,10.0,West,9.2,-,N/A,,Overcast,260,2013-03-18 17:53:00
11:53 AM,45.0,32.0,60,30.19,10.0,WSW,5.8,-,N/A,,Scattered Clouds,250,2013-03-18 18:53:00
12:53 PM,46.0,28.9,51,30.19,10.0,Variable,6.9,-,N/A,,Scattered Clouds,0,2013-03-18 19:53:00
1:53 PM,48.0,26.1,42,30.21,10.0,Variable,5.8,-,N/A,,Clear,0,2013-03-18 20:53:00
2:53 PM,48.0,28.9,48,30.21,10.0,South,8.1,-,N/A,,Scattered Clouds,190,2013-03-18 21:53:00
3:53 PM,48.9,27.0,43,30.22,10.0,SSE,10.4,-,N/A,,Mostly Cloudy,160,2013-03-18 22:53:00
4:53 PM,48.0,32.0,54,30.23,10.0,South,9.2,-,N/A,,Overcast,170,2013-03-18 23:53:00
5:53 PM,46.9,30.9,54,30.23,10.0,Variable,3.5,-,N/A,,Scattered Clouds,0,2013-03-19 00:53:00
6:53 PM,46.9,30.9,54,30.23,10.0,SSE,3.5,-,N/A,,Partly Cloudy,160,2013-03-19 01:53:00
7:53 PM,43.0,32.0,65,30.24,10.0,SSE,4.6,-,N/A,,Clear,160,2013-03-19 02:53:00
8:53 PM,42.1,30.9,65,30.26,10.0,Calm,Calm,-,N/A,,Clear,0,2013-03-19 03:53:00
9:53 PM,37.9,30.9,76,30.26,10.0,Calm,Calm,-,N/A,,Clear,0,2013-03-19 04:53:00
10:53 PM,39.0,30.9,73,30.26,10.0,SSE,3.5,-,N/A,,Clear,150,2013-03-19 05:53:00
11:53 PM,37.0,30.0,76,30.27,10.0,ESE,3.5,-,N/A,,Clear,110,2013-03-19 06:53:00